{"data":{"norad_id":58288,"intl_designator":"2023-174AJ","name":"ICEYE-X31","alt_names":[],"object_type":"PAYLOAD","status":"ACTIVE","operator":null,"country":"FIN","launch_date":"2023-11-11","launch_site_code":"AFWTR","launch_vehicle":null,"mission":null,"orbit_class":"UNKNOWN","rcs_meters":null,"size_class":null,"mass_kg":null,"dimensions":null,"purposes":[],"wikipedia_slug":null,"has_3d_model":false,"image_url":null,"decayed_at":null,"tle_current":{"epoch":"2026-05-25T04:10:05.140704Z","epoch_age_seconds":66955,"freshness":"FRESH","line1":"1 58288U 23174AJ  26145.17367061  .00016113  00000+0  50077-3 0  9990","line2":"2 58288  97.3787 220.9354 0003248  75.0958 285.0644 15.33417978141227","mean_motion":15.33417978,"eccentricity":0.0003248,"inclination_deg":97.3787,"raan_deg":220.9354,"arg_perigee_deg":75.0958,"mean_anomaly_deg":285.0644,"bstar":0.00050077,"rev_number":14122,"period_min":93.907859478611,"perigee_km":463.40072068472,"apogee_km":467.84642755366,"semimajor_km":6843.7605741192,"source":"CELESTRAK","updated_at":"2026-05-25T13:38:00.644808Z"}}}